Regional Weather Roundup
Issued by NWS Upton, NY

Home | Current Version | Previous Version | Text Only | Print | Product List | Glossary On
Versions: 1 2 3 4 5 6 7 8 9 10 11 12 13 14 15 16 17 18 19 20 21 22 23 24 25 26 27
000
ASUS41 KOKX 251705
RWROKX

REGIONAL WEATHER ROUNDUP
NATIONAL WEATHER SERVICE NEW YORK NY
100 PM EDT WED MAY 25 2016

NOTE: "FAIR" INDICATES FEW OR NO CLOUDS BELOW 12,000 FEET WITH NO
SIGNIFICANT WEATHER AND/OR OBSTRUCTIONS TO VISIBILITY.

NYZ071-072-176-178-NJZ106-104-251800-
NEW YORK CITY METRO AREA


CITY           SKY/WX    TMP DP  RH WIND       PRES   REMARKS
CENTRAL PARK   SUNNY     85  45  24 VRB3      30.08F
LAGUARDIA APRT MOSUNNY   86  50  28 W8        30.05S
KENNEDY INTL   MOSUNNY   82  53  36 SW15      30.07S
NEWARK/LIBERTY MOSUNNY   88  43  20 NW9       30.06S
BRNX BOT. GARD   N/A     84  46  26 W14       30.05F
TETERBORO      SUNNY     85  43  22 W7        30.04F
$$

NYZ177-179-078>081-251800-
LONG ISLAND NEW YORK

CITY           SKY/WX    TMP DP  RH WIND       PRES   REMARKS
FARMINGDALE    SUNNY     85  47  26 W10       30.05F
ISLIP          MOSUNNY   82  54  37 S12       30.04F
SHIRLEY        SUNNY     82  56  40 S12       30.05S
RIVERHEAD        N/A     81  59  47 CALM      30.03F
WESTHAMPTON    NOT AVBL
EAST HAMPTON   FAIR      81  46  29 W13       30.03F
MONTAUK POINT    N/A     76  52  43 W9        30.04F
$$

NYZ052-065-067-251800-
HUDSON VALLEY

CITY           SKY/WX    TMP DP  RH WIND       PRES   REMARKS
WHITE PLAINS   SUNNY     82  50  32 NW9       30.05F
NEWBURGH       SUNNY     82  48  30 NW9       30.05F
MONTGOMERY     SUNNY     85  45  24 W13G23    30.04F
POUGHKEEPSIE   SUNNY     84  53  34 CALM      30.02F
ALBANY         MOSUNNY   83  54  36 SE9       30.00F
$$

NJZ001-105-106-008-010-013-015-019>022-104-251800-
NEW JERSEY

CITY           SKY/WX    TMP DP  RH WIND       PRES   REMARKS
NEWARK/LIBERTY MOSUNNY   88  43  20 NW9       30.06S
TETERBORO      SUNNY     85  43  22 W7        30.04F
CALDWELL       SUNNY     85  42  22 NW9       30.06F
MORRISTOWN     SUNNY     84  46  26 MISG      30.07S
SOMERVILLE     SUNNY     83  50  31 SW6       30.06F
SUSSEX         SUNNY     84  45  25 VRB6      30.06F
ANDOVER          N/A     84  46  26 VRB3      30.08F
TRENTON        SUNNY     84  48  28 W9        30.09S
MILLVILLE      MOSUNNY   85  47  26 W12G18    30.12R
ATLANTIC CITY  SUNNY     86  38  18 W12       30.10S
WRIGHTSTOWN    NOT AVBL
TOMS RIVER     SUNNY     86  43  22 NW14G20   30.09S
BELMAR         SUNNY     85  48  27 W9        30.09S
$$

PAZ047>061-062-071-251800-
EASTERN PENNSYLVANIA

CITY           SKY/WX    TMP DP  RH WIND       PRES   REMARKS
PHILADELPHIA   CLOUDY    84  40  21 SW13      30.11S
ALLENTOWN      SUNNY     84  48  28 SW8       30.09F
SCRANTON       SUNNY     82  48  30 W9        30.09F
$$

CTZ002-004>006-009-010-012-RIZ004-006-007-MAZ004-011-015-251800-
SOUTHERN NEW ENGLAND
 IN CT

CITY           SKY/WX    TMP DP  RH WIND       PRES   REMARKS
BRADLEY INTL   MOSUNNY   86  46  24 NW14      29.98F
HARTFORD       SUNNY     88  47  24 NW12      29.99F
DANBURY        SUNNY     82  52  35 SW7       30.05F
WTRBRY/OXFORD  SUNNY     79  52  38 NW8       30.07F
BRIDGEPORT     SUNNY     75  53  46 SW13      30.04S
MERIDEN        SUNNY     85  49  28 VRB3      30.01F
NEW HAVEN      SUNNY     74  54  49 SW8       30.03F
CHESTER        FAIR      82  50  32 W7G14     30.03F
GROTON         SUNNY     70  59  68 SW14      30.01F
WILLIMANTIC    SUNNY     86  45  23 NW12G18   30.00F

 IN RI

CITY           SKY/WX    TMP DP  RH WIND       PRES   REMARKS
PROVIDENCE     MOSUNNY   77  57  50 S9        29.99F
BLOCK ISLAND   SUNNY     71  54  54 W15       30.03F
WESTERLY       SUNNY     69  53  56 SW12G18   30.02F

 IN MA

CITY           SKY/WX    TMP DP  RH WIND       PRES   REMARKS
BOSTON         SUNNY     67  58  72 E9        29.97F
WORCESTER      SUNNY     78  48  34 W9G21     30.01F
WESTFIELD      SUNNY     85  42  22 NW13      29.98F
PROVINCETOWN   SUNNY     70  59  68 S10       30.00F
NANTUCKET      PTSUNNY   59  54  83 SW14      30.03F HAZE
$$

ANZ330-335-338-340-345-350-353-355-251800-
COASTAL MARINE OBSERVATIONS


STATION/POSITION TIME  SKY/WX   TEMP    WIND        PRES    VSBY  WAVE
                                AIR SEA DIR/SP/G                  HT/PER
                 (UTC)          (F)     (DEG/KT/KT) (MB)    (MI)  (FT/S)
NY HARB ENTRANCE 1550            66 62  200/  4/  4 1018.1          2/ 8
20S FIRE ISLAND  1550            59 56  240/ 10/ 10 1018.1          3/ 8
GREAT SOUTH BAY  1600            65 65  240/ 12/ 16   N/A
23 SSW MONTAUK P 1650            58 55  230/ 10/ 12 1016.8          3/ 8
15 E BARNEGAT LI 1622               58                N/A           3/11
HUDSON CANYON    1550            57 55              1019.0          3/ 6
KINGS POINT      1600            74 58              1017.6
EXECUTION ROCKS  NOT AVBL
CENTRAL LI SOUND 1600            60     250/  6/  6   N/A           1
EASTERN LI SOUND 1600            56 53  250/  8/ 12   N/A
ROBBINS REEF     1606            80     250/  9/ 10 1017.2
$$


>>>>>>>>>>>>>>>>>>>>>>>>>>>> KEY <<<<<<<<<<<<<<<<<<<<<<<<<<<
>                                                          <
>     SKY/WX - SKY CONDITION/PRESENT WEATHER               <
>     TMP    - TEMPERATURE IN FAHRENHEIT                   <
>     DP     - DEWPOINT IN FAHRENHEIT                      <
>     RH     - RELATIVE HUMIDITY IN PERCENT                <
>     WIND   - DIRECTION AND SPEED IN MPH                  <
>     PRES   - MEAN SEA LEVEL PRESSURE IN INCHES OF HG     <
>     WCI    - WIND CHILL INDEX                            <
>     VSB    - VISIBILITY IN MILES                         <
>     HX     - HEAT INDEX                                  <
>     TC     - TEMPERATURE IN CELSIUS                      <
>     VRB    - VARIABLE WIND DIRECTION                     <
>                                                          <
>>>>>>>>>>>>>>>>>>>>>>>>>>>> KEY <<<<<<<<<<<<<<<<<<<<<<<<<<<






USA.gov is the U.S. government's official web portal to all federal, state and local government web resources and services.